Location: Branche des Alpilles
(43.6087°N, 4.6976°E)
Time: 09:01:28
(UTC+00:00)

SL-23 DEB - Pass Details

Date: 30 November 2020
Orbit: 425 x 3627 km, 51.4° (Epoch: 26 January)

Event Time Altitude Azimuth Distance (km) Brightness Sun altitude
Rises 17:18:12 0° 233° (SW) 2,435 8.6 -12.8°
Reaches altitude 10° 17:19:58 10° 232° (SW) 1,661 7.5 -13.1°
Maximum altitude 17:23:28 80° 146° (SE) 622 4.0 -13.7°
Enters shadow 17:26:57 20° 61° (ENE) 1,738 5.7 -14.3°
